Mitchell, SD

9:58 PM CDT on September 18, 2019 (GMT -0500)
Mitchell Municipal

Weather History for KMHE - May, 2019

Change the Weather History Date:

Tuesday, May 28, 2019

  Actual Average Record
Temperature  
Mean Temperature 59 °F 63 °F  
Max Temperature 64 °F 74 °F 107 °F (1934)
Min Temperature 53 °F 52 °F 28 °F (1965)
Degree Days  
Heating Degree Days 6 4  
Month to date heating degree days 289 199  
Since 1 July heating degree days 7977 7199  
Cooling Degree Days 0 2  
Month to date cooling degree days 7 30  
Year to date cooling degree days 7 32  
Growing Degree Days 8 (Base 50)    
Moisture  
Dew Point 50 °F    
Average Humidity 75    
Maximum Humidity 86    
Minimum Humidity 63    
Precipitation  
Precipitation 0.01 in 0.15 in 1.59 in (2016)
Month to date precipitation 4.29 2.47  
Year to date precipitation 11.87 6.27  
Snow  
Snow 0.00 in - 0.00 in ()
Month to date snowfall 0.0  
Since 1 July snowfall 67.6  
Snow Depth 0.00 in    
Sea Level Pressure  
Sea Level Pressure 29.82 in    
Wind  
Wind Speed 12 mph (ENE)    
Max Wind Speed 20 mph    
Max Gust Speed 27 mph    
Visibility 10 miles    
Events Rain    
T = Trace of Precipitation, MM = Missing Value Source: NWS Daily Summary

Daily Weather History Graph

Daily Weather History Graph

Search for Another Location

Airport or City:

Astronomy

May. 28, 2019 Rise Set
Actual Time 5:55 AM CDT 9:03 PM CDT
Civil Twilight 5:20 AM CDT 9:38 PM CDT
Nautical Twilight 4:36 AM CDT 10:23 PM CDT
Astronomical Twilight 3:42 AM CDT 11:17 PM CDT
Moon 3:23 AM CDT (5/28) 3:01 PM CDT (5/28)
Length of Visible Light 16h 17m
Length of Day
15h 08m
Waning Crescent, 31% of the Moon is Illuminated
May 28
Waning Crescent
Jun 3
New
Jun 10
First Quarter
Jun 17
Full
Jun 25
Last Quarter

Hourly Weather History & Observations

Time (CDT) Temp. Dew Point Humidity Pressure Visibility Wind Dir Wind Speed Gust Speed Precip Events Conditions
12:53 AM 55.9 °F 51.1 °F 84% 29.83 in 10.0 mi ENE 15.0 mph - N/A   Partly Cloudy
1:27 AM 55.9 °F 50.0 °F 80% 29.83 in 10.0 mi ENE 10.4 mph - N/A   Mostly Cloudy
1:36 AM 55.0 °F 50.0 °F 83% 29.84 in 10.0 mi East 6.9 mph - N/A   Scattered Clouds
1:53 AM 55.0 °F 50.0 °F 83% 29.85 in 10.0 mi East 6.9 mph - N/A   Clear
2:27 AM 55.0 °F 51.1 °F 86% 29.85 in 10.0 mi East 9.2 mph - N/A   Mostly Cloudy
2:53 AM 55.0 °F 50.0 °F 83% 29.86 in 10.0 mi East 11.5 mph - N/A   Overcast
3:53 AM 54.0 °F 48.9 °F 83% 29.82 in 10.0 mi East 8.1 mph - N/A   Overcast
4:51 AM 53.6 °F 48.2 °F 82% 29.82 in 10.0 mi East 11.5 mph - N/A   Overcast
4:53 AM 54.0 °F 48.0 °F 80% 29.82 in 10.0 mi ENE 12.7 mph - N/A   Overcast
5:01 AM 54.0 °F 48.0 °F 80% 29.82 in 10.0 mi ENE 9.2 mph - N/A   Overcast
5:53 AM 53.1 °F 48.0 °F 83% 29.84 in 10.0 mi East 10.4 mph - N/A   Overcast
6:53 AM 53.1 °F 48.9 °F 86% 29.86 in 10.0 mi ENE 4.6 mph - 0.00 in   Overcast
7:53 AM 53.1 °F 48.0 °F 83% 29.79 in 10.0 mi NE 13.8 mph - 0.00 in   Scattered Clouds
8:53 AM 57.9 °F 50.0 °F 75% 29.82 in 10.0 mi NE 11.5 mph - N/A   Clear
9:48 AM 59.0 °F 50.0 °F 72% 29.83 in 10.0 mi NE 15.0 mph - N/A   Mostly Cloudy
9:53 AM 60.1 °F 50.0 °F 69% 29.83 in 10.0 mi ENE 15.0 mph - N/A   Mostly Cloudy
10:53 AM 61.0 °F 50.0 °F 67% 29.84 in 10.0 mi ENE 16.1 mph - N/A   Mostly Cloudy
11:53 AM 63.0 °F 51.1 °F 65% 29.82 in 10.0 mi ENE 16.1 mph - N/A   Mostly Cloudy
12:53 PM 62.1 °F 50.0 °F 65% 29.82 in 10.0 mi ENE 17.3 mph 25.3 mph N/A   Overcast
1:44 PM 62.1 °F 51.1 °F 67% 29.83 in 10.0 mi ENE 11.5 mph - N/A   Overcast
1:53 PM 61.0 °F 50.0 °F 67% 29.83 in 10.0 mi NE 13.8 mph - N/A   Overcast
2:06 PM 62.1 °F 50.0 °F 65% 29.83 in 10.0 mi ENE 16.1 mph 25.3 mph N/A   Overcast
2:53 PM 63.0 °F 51.1 °F 65% 29.84 in 10.0 mi NE 12.7 mph - N/A   Overcast
3:53 PM 62.1 °F 51.1 °F 67% 29.82 in 10.0 mi NE 13.8 mph - N/A   Overcast
4:53 PM 62.1 °F 50.0 °F 65% 29.80 in 10.0 mi NE 12.7 mph - N/A   Overcast
5:53 PM 64.0 °F 52.0 °F 65% 29.76 in 10.0 mi NNE 15.0 mph 21.9 mph N/A   Overcast
6:53 PM 63.0 °F 51.1 °F 65% 29.75 in 10.0 mi ENE 15.0 mph - N/A   Overcast
7:53 PM 61.0 °F 52.0 °F 72% 29.76 in 10.0 mi NNE 6.9 mph - 0.01 in Rain Light Rain
8:53 PM 60.1 °F 52.0 °F 75% 29.78 in 10.0 mi NE 6.9 mph - 0.00 in   Overcast
9:53 PM 60.1 °F 53.1 °F 78% 29.78 in 10.0 mi NNE 8.1 mph - 0.00 in Rain Light Rain
10:53 PM 60.1 °F 51.1 °F 72% 29.79 in 10.0 mi NNE 11.5 mph - 0.00 in   Overcast
11:53 PM 59.0 °F 51.1 °F 75% 29.79 in 10.0 mi North 11.5 mph - 0.00 in Rain Light Rain